View from above orbital plane
|
View from above satellite
|
Ground track
|
The orbit data is extracted from the following two-line orbital elements,
1 12849U 81094B 21015.08431998 .00000307 00000-0 24271-4 0 9997
2 12849 82.4909 242.5467 0901505 136.5738 231.0143 13.50777082918474
Epoch (UTC): | 15 January 2021 02:01:25 |
Eccentricity: | 0.0901505 |
inclination: | 82.4909° |
perigee height: | 398 km |
apogee height: | 1741 km |
right ascension of ascending node: | 242.5467° |
argument of perigee: | 136.5738° |
revolutions per day: | 13.50777082 |
mean anomaly at epoch: | 231.0143° |
orbit number at epoch: | 91847 |
The dashed part of the orbit path shows where the satellite is in the earth's shadow,
|
|